Weather History for Joplin, MO

Change the Weather History Date:

Sunday, November 11, 2012

  Actual Average Record
Temperature  
Mean Temperature 49 °F 51 °F  
Max Temperature 68 °F 61 °F 81 °F (1949)
Min Temperature 30 °F 40 °F 19 °F (1950)
Degree Days  
Heating Degree Days 16 15  
Month to date heating degree days 117 140  
Since 1 July heating degree days 441 392  
Cooling Degree Days 0 0  
Month to date cooling degree days 4 5  
Year to date cooling degree days 2106 1696  
Moisture  
Dew Point 44 °F    
Average Humidity 89    
Maximum Humidity 100    
Minimum Humidity 63    
Precipitation  
Precipitation 1.13 in 0.13 in 2.30 in (1992)
Month to date precipitation 1.13 1.45  
Year to date precipitation 36.78 41.40  
Snow  
Snow 0.00 in - - ()
Month to date snowfall 0.0  
Snow Depth 0.00 in    
Sea Level Pressure  
Sea Level Pressure 29.94 in    
Wind  
Wind Speed 13 mph (WNW)    
Max Wind Speed 33 mph    
Max Gust Speed 43 mph    
Visibility 7 miles    
Events Rain , Thunderstorm    
T = Trace of Precipitation, MM = Missing Value Source: NWS Daily Summary

Daily Weather History Graph

Daily Weather History Graph

Search for Another Location

Airport:

Trip Planner

Search our weather history database for the weather conditions in past years. The results will help you decide how hot, cold, wet, or windy it might be!

Date:

Astronomy

Nov. 11, 2012 Rise Set
Actual Time 6:53 AM CST 5:10 PM CST
Civil Twilight 6:25 AM CST 5:38 PM CST
Nautical Twilight 5:54 AM CST 6:09 PM CST
Astronomical Twilight 5:23 AM CST 6:39 PM CST
Moon 4:10 AM CST (11/11) 3:32 PM CST (11/11)
Length of Visible Light 11h 12m
Length of Day
10h 17m
Waning Crescent, 7% of the Moon is Illuminated
Nov 11
Waning Crescent
Nov 13
New
Nov 20
First Quarter
Nov 28
Full
Dec 6
Last Quarter

Hourly Weather History & Observations

Time (CST) Temp. Windchill Dew Point Humidity Pressure Visibility Wind Dir Wind Speed Gust Speed Precip Events Conditions
12:53 AM 68.0 °F - 55.0 °F 63% 29.75 in 10.0 mi South 27.6 mph 32.2 mph N/A   Partly Cloudy
1:53 AM 68.0 °F - 55.0 °F 63% 29.73 in 10.0 mi South 23.0 mph 40.3 mph N/A   Clear
2:53 AM 68.0 °F - 55.9 °F 65% 29.77 in 10.0 mi SSW 23.0 mph 33.4 mph N/A   Mostly Cloudy
3:53 AM 66.9 °F - 55.9 °F 68% 29.76 in 10.0 mi South 16.1 mph 27.6 mph N/A   Overcast
4:53 AM 66.9 °F - 57.0 °F 70% 29.73 in 10.0 mi South 21.9 mph 27.6 mph 0.00 in   Overcast
5:53 AM 68.0 °F - 57.0 °F 68% 29.70 in 10.0 mi South 28.8 mph 34.5 mph N/A   Overcast
6:53 AM 68.0 °F - 57.0 °F 68% 29.71 in 10.0 mi South 25.3 mph 38.0 mph N/A   Overcast
7:53 AM 60.8 °F - 53.6 °F 77% 29.78 in 10.0 mi WNW 9.2 mph 27.6 mph N/A   Overcast
8:05 AM 53.6 °F - 51.8 °F 94% 29.81 in 7.0 mi NW 23.0 mph 29.9 mph N/A Rain , Thunderstorm Thunderstorms and Rain
8:09 AM 51.8 °F - 50.0 °F 94% 29.80 in 1.8 mi NW 26.5 mph 33.4 mph 0.11 in Rain , Thunderstorm Thunderstorms and Rain
8:12 AM 51.8 °F - 50.0 °F 94% 29.81 in 0.8 mi NW 24.2 mph 35.7 mph 0.18 in Rain , Thunderstorm Heavy Thunderstorms and Rain
8:22 AM 51.8 °F - 50.0 °F 94% 29.82 in 1.2 mi NW 21.9 mph 29.9 mph 0.25 in Rain Rain
8:53 AM 51.1 °F - 48.9 °F 92% 29.82 in 4.0 mi North 11.5 mph - 0.38 in Rain Light Rain
9:22 AM 50.0 °F - 50.0 °F 100% 29.87 in 2.5 mi WNW 6.9 mph - 0.04 in Rain Rain
9:30 AM 51.8 °F - 48.2 °F 88% 29.87 in 1.8 mi NW 9.2 mph - 0.08 in Rain Heavy Rain
9:53 AM 50.0 °F - 48.9 °F 96% 29.86 in 3.0 mi NNW 6.9 mph - 0.14 in Rain Rain
10:25 AM 50.0 °F - 50.0 °F 100% 29.88 in 2.0 mi NW 8.1 mph - 0.08 in Rain Rain
10:53 AM 50.0 °F - 50.0 °F 100% 29.90 in 2.0 mi WNW 5.8 mph - 0.13 in Rain Rain
11:07 AM 50.0 °F - 50.0 °F 100% 29.91 in 3.0 mi NNW 6.9 mph - 0.03 in Rain Light Rain
11:10 AM 50.0 °F - 50.0 °F 100% 29.92 in 4.0 mi WNW 5.8 mph - 0.03 in Rain Light Rain
11:53 AM 48.9 °F - 48.9 °F 100% 29.89 in 3.0 mi West 3.5 mph - 0.15 in Rain Rain
11:58 AM 48.2 °F - 48.2 °F 100% 29.91 in 2.0 mi West 5.8 mph - 0.02 in Rain Rain
12:53 PM 48.0 °F - 48.0 °F 100% 29.91 in 4.0 mi West 9.2 mph - 0.17 in Rain Rain
1:07 PM 46.4 °F 39.8 °F 46.4 °F 100% 29.92 in 2.0 mi WNW 16.1 mph - 0.03 in Rain Rain
1:49 PM 42.8 °F 38.0 °F 42.8 °F 100% 29.94 in 6.0 mi NW 8.1 mph - 0.11 in Rain Rain
1:53 PM 42.1 °F 36.6 °F 42.1 °F 100% 29.93 in 4.0 mi NW 9.2 mph - 0.13 in Rain Rain
2:53 PM 37.9 °F 29.6 °F 36.0 °F 93% 29.97 in 10.0 mi NW 13.8 mph - 0.03 in Rain Light Rain
3:53 PM 37.0 °F 29.8 °F 36.0 °F 96% 30.01 in 10.0 mi NW 10.4 mph - 0.00 in   Overcast
4:49 PM 35.6 °F 27.5 °F 33.8 °F 93% 30.04 in 10.0 mi NW 11.5 mph - N/A   Overcast
4:53 PM 36.0 °F 27.5 °F 34.0 °F 93% 30.05 in 10.0 mi NW 12.7 mph - N/A   Overcast
5:04 PM 35.6 °F 27.5 °F 33.8 °F 93% 30.07 in 10.0 mi NW 11.5 mph - N/A   Overcast
5:50 PM 35.6 °F 27.5 °F 33.8 °F 93% 30.09 in 10.0 mi NW 11.5 mph - N/A   Overcast
5:53 PM 35.1 °F 27.9 °F 33.1 °F 92% 30.10 in 10.0 mi NW 9.2 mph - N/A   Overcast
7:31 PM 33.8 °F 24.3 °F 30.2 °F 87% 30.16 in 10.0 mi NW 13.8 mph - N/A   Overcast
7:53 PM 34.0 °F 23.8 °F 28.9 °F 82% 30.18 in 10.0 mi NW 16.1 mph - N/A   Overcast
8:40 PM 33.8 °F 25.3 °F 28.4 °F 81% 30.20 in 10.0 mi NW 11.5 mph - N/A   Scattered Clouds
8:53 PM 33.1 °F 25.5 °F 28.0 °F 82% 30.22 in 10.0 mi NW 9.2 mph - N/A   Clear
9:53 PM 30.9 °F 26.2 °F 28.0 °F 89% 30.25 in 10.0 mi NW 4.6 mph - N/A   Clear
10:53 PM 30.0 °F 24.1 °F 28.0 °F 92% 30.25 in 10.0 mi NW 5.8 mph - N/A   Clear
11:53 PM 30.0 °F 23.2 °F 25.0 °F 82% 30.28 in 10.0 mi NW 6.9 mph - N/A   Clear